www.pogodaiklimat.ru

Погода и климат >> Архив погоды >> Беларусь >> Марьина Горка


ПОГОДА в Марьиной Горке

  • Прогноз погоды в Марьиной Горке
  • Монитор погоды в Марьиной Горке
  • Климат города

АРХИВ ПОГОДЫ в Марьиной Горке

Время (UTC), дата Ветер
(напр.,м/с)
 
Видим.   Явления Облачность Т
(С)
Тd
(С)
f
(%)
Тe
(С)
Тes
(С)
Комфортность P
(гПа)
Po
(гПа)
Тmin
(С)
Tmax
(С)
R
(мм)
R24
(мм)
S
(см)
03 13.02 ЮВ 1 4500 м дымка 9/8 300 м
[Sc Ac und]
-2.1 -2.4 98 -5 -5 1018.0 995.7
06 13.02 ЮВ 1 7000 м дымка 10/0 2000 м
[As trans]
-3.0 -3.8 94 -5 -5 1018.8 996.4 -3.1 0.3 8
09 13.02 ЮВ 1 10 км 9/0 2000 м
[Ac und]
-2.1 -3.8 88 -4 -3 1019.7 997.3
12 13.02 СВ 1 16 км 9/0 2000 м
[Ac und]
-1.4 -4.9 77 -3 -2 1019.5 997.2
15 13.02 В 1 17 км 9/0 2000 м
[Ac und]
-2.4 -6.9 71 -4 -4 1019.9 997.5
18 13.02 В 1 14 км 9/0 2000 м
[Ac und]
-3.9 -7.5 76 -6 -6 1020.4 997.9 -0.7
21 13.02 В 2 14 км 9/0
[Ac und]
-5.0 -8.2 78 -9 -9 1021.0 998.4
00 14.02 ЮВ 1 12 км 9/0 2000 м
[Ac und]
-5.5 -8.2 81 -8 -8 1021.5 998.8
03 14.02 В 2 11 км 6/0 2000 м
[Ac und]
-7.0 -8.9 86 -11 -11 1021.4 998.6
06 14.02 СВ 1 10 км 8/0 2000 м
[Ac und]
-8.8 -10.0 91 -11 -11 1023.2 1000.2 -8.9 8
09 14.02 СВ 1 13 км 9/0 2000 м
[Ac und]
-6.7 -9.1 83 -9 -8 1024.1 1001.2
12 14.02 СВ 2 15 км 8/0 2000 м
[Ac und]
-4.8 -8.0 78 -9 -8 1024.1 1001.4
15 14.02 В 2 15 км 9/0 2000 м
[Ac und]
-5.1 -8.5 77 -9 -9 1025.1 1002.4
18 14.02 В 1 10 км 3/0 2000 м
[Ac und]
-8.3 -9.8 89 -11 -11 1026.8 1003.7 -4.0
21 14.02 В 1 8000 м дымка 5/0 2000 м
[Ac und]
-8.7 -9.8 92 -11 -11 1027.5 1004.4
00 15.02 В 1 7000 м слабый снег 10/6 300 м
[Frnb As op]
-7.5 -8.4 93 -10 -10 1027.8 1004.8
03 15.02 В 1 5000 м слабый снег 10/8 300 м
[Frnb As op]
-7.1 -7.9 94 -10 -10 1028.0 1005.0
06 15.02 В 1 7000 м в посл. час снег 10/3 300 м
[St As trans]
-8.1 -8.8 95 -11 -10 1028.9 1005.8 -8.9 0.2 8
09 15.02 ЮВ 1 10 км 5/0
[Ci fib]
-5.5 -7.8 84 -8 -4 1029.9 1007.0
12 15.02 В 1 10 км 9/5 600 м
[Sc Ac und]
-4.2 -7.6 77 -6 -6 1029.3 1006.5
15 15.02 Ю 1 10 км 10/0 2000 м
[As trans Cs]
-4.3 -7.6 78 -6 -6 1029.2 1006.4
18 15.02 В 1 12 км 9/0 2000 м
[Ac und]
-5.0 -7.3 84 -7 -7 1029.4 1006.6 -2.8
21 15.02 ЮВ 1 10 км 9/0 2000 м
[Ac und]
-5.2 -6.4 91 -8 -8 1029.1 1006.3
00 16.02 ЮВ 1 7000 м дымка 9/0 2000 м
[Ac und]
-5.2 -6.0 94 -8 -8 1028.5 1005.7
03 16.02 ЮВ 1 6000 м дымка 9/0 2000 м
[Ac und]
-4.8 -5.3 96 -7 -7 1028.0 1005.2
06 16.02 ЮВ 1 4300 м слабый снег 10/0 2000 м
[As op]
-4.5 -4.9 97 -7 -7 1026.6 1003.9 -5.5 0.0 8
09 16.02 ЮВ 1 4200 м слабый снег 10/6 300 м
[Frnb As op]
-2.8 -3.5 95 -5 -5 1025.9 1003.3
12 16.02 Ю 1 4600 м слабый снег 10/3 300 м
[Frnb As op]
-1.3 -2.4 92 -4 -3 1024.6 1002.2
15 16.02 Ю 1 3200 м снег 10/8 300 м
[Frnb As op]
-1.3 -1.6 98 -4 -4 1023.7 1001.3
18 16.02 Ю 1 4000 м в посл. час снег 10/8 300 м
[St As op]
-1.3 -1.4 99 -4 -4 1023.3 1000.9 -1.1 2
21 16.02 Ю 1 3500 м дымка 10/8 300 м
[St As op]
-1.0 -1.1 99 -3 -3 1022.5 1000.2
00 17.02 Ю 1 3200 м слабый снег 10/6 300 м
[Frnb As op]
-0.9 -1.0 99 -3 -3 1021.9 999.6
03 17.02 З 1 3500 м дымка {снег} 10/8 300 м
[St As op]
-0.9 -1.2 98 -3 -3 1021.5 999.2
06 17.02 ЮЗ 1 6000 м дымка {снег} 10/5 450 м
[St As op]
-0.8 -1.5 95 -3 -3 1021.4 999.1 -1.3 0.6 11
09 17.02 ЮЗ 3 7000 м дымка 9/5 300 м
[St As trans]
+0.6 -0.5 92 -4 -3 1020.5 998.3
12 17.02 ЮЗ 4 8000 м дымка {снег} 10/6 300 м
[St As op]
+1.3 -0.2 90 -4 -4 1018.9 996.8
15 17.02 ЮЗ 4 7000 м дымка 10/5 300 м
[St As op]
+0.5 -0.6 92 -5 -5 1018.3 996.2
18 17.02 ЮЗ 2 7000 м дымка {снег} 10/6 300 м
[St As op]
-0.1 -1.1 93 -4 -4 1018.4 996.2 +1.7 0.0
21 17.02 З 3 12 км 6/0 2000 м
[Ac und]
-0.6 -2.8 85 -5 -5 1018.4 996.2
00 18.02 СЗ 3 12 км 4/0 2000 м
[Ac und]
-2.4 -4.6 85 -8 -8 1019.2 996.8
03 18.02 З 4 11 км 9/0 2000 м
[Ac und]
-3.0 -5.0 86 -9 -9 1019.4 997.0
06 18.02 З 3 11 км 9/0 2000 м
[Ac und]
-3.4 -5.2 87 -9 -9 1020.0 997.5 -3.5 9
09 18.02 СЗ 5 11 км в посл. час снег 9/8 600 м
[Sc Ac und]
-3.1 -5.0 87 -10 -10 1020.3 997.8
12 18.02 З 4 8000 м слабый снег 10/8 300 м
[Frnb As op]
-3.0 -4.4 90 -9 -9 1021.0 998.5
15 18.02 СЗ 2 8000 м слабый снег 10/8 300 м
[Frnb As op]
-3.1 -4.2 92 -7 -7 1022.0 999.5
18 18.02 СЗ 2 5000 м слабый снег 10/8 300 м
[Frnb As op]
-4.1 -5.1 93 -8 -8 1023.1 1000.5 -2.8 0.5
21 18.02 СЗ 1 7000 м слабый снег 10/8 300 м
[Frnb As op]
-4.2 -5.4 91 -7 -7 1023.5 1000.9
00 19.02 СЗ 1 11 км {снег} 9/8 300 м
[Sc Ac und]
-5.4 -7.2 87 -8 -8 1023.9 1001.2
03 19.02 штиль 0 5000 м слабый снег 10/9 360 м
[Frnb As op]
-6.2 -6.7 96 -7 -7 1023.2 1000.4
06 19.02 З 1 6000 м дымка {снег} 10/6 300 м
[St As trans]
-4.9 -5.4 96 -7 -7 1023.0 1000.3 -6.6 0.4 10
09 19.02 СЗ 1 7000 м дымка {снег} 10/8 300 м
[St As op]
-3.4 -4.4 93 -6 -6 1023.2 1000.7
12 19.02 С 2 14 км {снег} 9/6 600 м
[Sc Ac und]
-3.0 -6.8 75 -7 -6 1023.4 1000.9
15 19.02 СЗ 1 14 км 9/3 600 м
[Sc Ac und]
-3.1 -6.9 75 -5 -5 1023.7 1001.2
18 19.02 штиль 0 13 км 9/5 600 м
[Sc Ac und]
-4.8 -7.2 83 -6 -6 1024.6 1001.9 -2.7 0.0
21 19.02 штиль 0 13 км 9/3 600 м
[Sc Ac und]
-5.1 -7.4 84 -6 -6 1024.5 1001.8

 

Местоположение метеостанции Марьина Горка (Минская область, Беларусь): широта 53.45 долгота 28.13 высота над уровнем моря 177 м.

В архиве по умолчанию представлена погода в Марьиной Горке за последнюю неделю. Архивные данные за месяц целиком и за предыдущие месяцы, начиная с января 2011 года, Вы можете получить, выбрав интересующий диапазон дат из раскрывающегося списка и нажав кнопку "Ввод!".

Внимание! Время в таблицах - всемирное. Для получения местного времени необходимо прибавить поправку, которая в Марьиной Горке равна 3 ч.

Смотрите также архив погоды в соседних городах и на ближайших метеорологических станциях:

Погода в Слуцке (Минская область, Беларусь) (61 км)
Погода в Минске (город Минск, Беларусь) (63 км)
Погода в Березино (Минская область, Беларусь) (71 км)
Погода в Бобруйске (Могилевская область, Беларусь) (72 км)
Погода в Кличеве (Могилевская область, Беларусь) (79 км)
Погода в Столбцах (Минская область, Беларусь) (93 км)
Погода в Борисове (Минская область, Беларусь) (94 км)
Погода в Октябре (Гомельская область, Беларусь) (104 км)
Погода в Воложине (Минская область, Беларусь) (128 км)
Погода в Ганцевичах (Брестская область, Беларусь) (137 км)

Пояснения к столбцам:

Ветер - указаны скорость ветра в м/с - средняя за 10 мин, порывы в срок и между сроками (в фигурных скобках) и направление, откуда дует ветер: С - северный, СВ - северо-восточный, В - восточный, ЮВ - юго-восточный, Ю - южный, ЮЗ - юго-западный, З - западный, СЗ - северо-западный.
Видимость - горизонтальная дальность видимости в метрах или километрах. При видимости от 1 до 10 км при отсутствии осадков обычно наблюдается дымка, при ухудшении видимости до 1 км и менее - туман. В сухую погоду видимость может ухудшаться дымом, пылью или мглою.
Явления - указаны атмосферные явления, наблюдавшиеся в срок или в последний час перед сроком; фигурными скобками обозначены явления, наблюдавшиеся между сроками (за 1-3 часа до срока); квадратными скобками обозначены град или гололедные отложения с указанием их диаметра в мм.
Облачность - указаны через наклонную черту общая и нижняя облачность в баллах и высота нижней границы облаков в метрах; квадратными скобками обозначены формы облаков: Ci - перистые, Cs - перисто-слоистые, Cc - перисто-кучевые, Ac - высококучевые, As - высокослоистые, Sc - слоисто-кучевые, Ns - слоисто-дождевые, Cu - кучевые, Cb - кучево-дождевые. Подробнее классификацию облаков см. в Атласе облаков (PDF).
T - Температура воздуха - температура, измеренная на высоте 2 м над землей.
Td - Температура точки росы - температура, при понижении до которой содержащийся в воздухе водяной пар достигнет насыщения.
f - Относительная влажность воздуха - влажноcть воздуха, измеренная на высоте 2 м над землей.
Te - Эффективная температура - температура, которую ощущает одетый по сезону человек в тени. Характеристика душности погоды. При расчете учитывается влияние влажности воздуха и скорости ветра на теплоощущения человека.
Tes - Эффективная температура на солнце - температура, которую ощущает человек, с поправкой на солнечный нагрев. Характеристика знойности погоды. Зависит от высоты солнца над горизонтом, облачности и скорости ветра. Ночью, в пасмурную погоду, а также при ветре 12 м/с и более поправка равна нулю.
P - Атмосферное давление - приведенное к уровню моря атмосферное давление.
Po - Атмосферное давление - измеренное на уровне метеостанции атмосферное давление.
Tmin - Минимальная температура - минимум температуры воздуха на высоте 2 м над землей.
Tmax - Максимальная температура - максимум температуры воздуха на высоте 2 м над землей.
R - Количество осадков - Количество выпавших осадков за период времени, мм. При наведении курсора мыши на число - период времени, за который выпало указанное количество осадков.
R24 - Количество осадков - Количество выпавших осадков за 24 часа, мм.
S - Снежный покров - Высота снежного покрова, см. При наведении курсора мыши на число - состояние снежного покрова и степень покрытия местности в баллах.